[[{"header":{"parameterUnit":"m.s-1","parameterCategory":2,"la1":30.2991,"la2":30.254,"lo1":-89.0895,"lo2":-89.0444,"dy":0.0017,"dx":0.0017,"nx":28,"ny":28,"refTime":"2024-07-30T09:00:00:Z","depth":"0","parameterNumber":2,"parameterNumberName":"U-component_of_CURRENTS"},"data":[0,0,0,0,0,0,0,0,0,0,0,0,0,0,0,0,0,0,0,0,0,0,0,0,0,0,0,0,0,0,0,0,0,0,0,0,0,0,0,0,0,0,0,0,0,0,0,0,0,0,0,0,0,0,0,0,0,0,0.5088,0.5092,0,0.51,0.5096,0.5092,0.4917,0.4917,0.4917,0.4917,0.5061,0.5065,0.5068,0,0,0,0,0,0,0,0,0,0,0,0,0,0.464,0.4646,0.5087,0.5092,0.5097,0.51,0.5096,0.5091,0.4917,0.4917,0.4917,0.4917,0.5059,0.5064,0.5069,0,0,0,0,0,0,0,0,0,0,0,0,0,0.4713,0.4648,0.5086,0.5048,0.5049,0.5101,0.5095,0.509,0.4917,0.4917,0.4917,0.4917,0.5058,0.5064,0.5069,0.5107,0,0,0.5087,0.509,0,0,0,0,0,0,0,0,0.4709,0.4723,0.5049,0.5052,0.5053,0.5052,0.4993,0.512,0.4917,0.4913,0.4917,0.4917,0.5104,0.5105,0.5033,0.5114,0.512,0.5088,0.5091,0.5094,0.5095,0,0,0,0,0,0,0,0.4705,0.4721,0.504,0.5056,0.5058,0.4941,0.4948,0.501,0.4972,0.4914,0.4914,0.4996,0.5098,0.5027,0.5037,0.5122,0.5087,0.5093,0.5096,0.5099,0.5253,0.5254,0,0,0,0,0,0,0.4823,0.4719,0.5041,0.5046,0.4935,0.4954,0.4959,0.501,0.4968,0.4975,0.4997,0.499,0.5017,0.503,0.5042,0.5131,0.5094,0.5099,0.5102,0.5253,0.5253,0.5254,0,0,0,0,0,0,0.4812,0.4849,0.5041,0.4923,0.4947,0.4969,0.5023,0.5012,0.4967,0.504,0.5038,0.4975,0.5018,0.5034,0.5117,0.5135,0.5102,0.5107,0.5252,0.5253,0.5254,0.5283,0,0,0,0,0,0,0.4797,0.4843,0.486,0.4932,0.496,0.5089,0.5029,0.5014,0.5043,0.5031,0.5022,0.5031,0.5019,0.5108,0.5122,0.5143,0.5112,0.5251,0.5252,0.5253,0.5282,0.5285,0.5288,0,0,0,0,0,0.478,0.4854,0.4859,0.49,0.5002,0.5096,0.509,0.507,0.5044,0.5019,0.5028,0.5033,0.5124,0.5115,0.5131,0.5153,0.5251,0.5252,0.5253,0.528,0.5285,0.5288,0,0,0,0,0,0,0.4681,0.4851,0.4856,0.4977,0.5042,0.5086,0.5103,0.5093,0.5061,0.5061,0.5066,0.5077,0.5157,0.5156,0.5145,0.5196,0.518,0.5184,0.5194,0.5199,0.5202,0.5236,0.5116,0,0,0,0,0,0.4682,0.4756,0.4896,0.498,0.5035,0.5058,0.5083,0.5085,0.5123,0.51,0.5104,0.5119,0.5167,0.5187,0.5222,0.5268,0.5292,0.5283,0.5287,0.529,0.5326,0.5383,0.5396,0.5259,0.5259,0.5259,0,0,0.4697,0.4783,0.4838,0.4961,0.4999,0.5055,0.5056,0.5136,0.5145,0.5141,0.5127,0.5161,0.5191,0.5226,0.5257,0.5231,0.5332,0.5291,0.5294,0.533,0.5386,0.54,0.5412,0.526,0.5259,0.5259,0,0,0.4752,0.4818,0.489,0.4937,0.5053,0.507,0.5116,0.5171,0.5151,0.5196,0.5188,0.5247,0.5278,0.5292,0.5312,0.5369,0.5369,0.5356,0.5384,0.5438,0.545,0.5462,0.5473,0.5486,0.5331,0.5331,0.5331,0,0.4723,0.4835,0.4922,0.4978,0.5022,0.5091,0.5142,0.5149,0.5201,0.5212,0.521,0.5273,0.5314,0.5373,0.538,0.5384,0.5392,0.5366,0.5445,0.5457,0.5468,0.5478,0.5491,0.5333,0.5333,0.5332,0.5332,0,0.4811,0.4884,0.4941,0.5009,0.5056,0.5121,0.5204,0.5213,0.5226,0.5239,0.5312,0.5355,0.5389,0.5401,0.5421,0.5502,0.5473,0.5463,0.5438,0.5484,0.549,0.5503,0.5335,0.5335,0.5334,0.5334,0,0,0.4718,0.4953,0.4939,0.4986,0.5065,0.512,0.5166,0.5225,0.5251,0.5295,0.5329,0.5422,0.5448,0.5477,0.5495,0.5548,0.5638,0.5539,0.5541,0.5557,0.5724,0.5584,0.5585,0.5632,0.5635,0.5638,0.5682,0,0.4707,0.4849,0.4931,0.5002,0.5089,0.5134,0.5162,0.522,0.526,0.5304,0.5389,0.5448,0.5472,0.5503,0.5566,0.565,0.568,0.5625,0.5673,0.5674,0.5552,0.56,0.5317,0.5323,0.5696,0.5698,0.5699,0,0.4671,0.4792,0.4902,0.5034,0.5063,0.5089,0.513,0.5172,0.5267,0.5302,0.5383,0.545,0.5576,0.5577,0.5731,0.5688,0.5718,0.576,0.5762,0.5644,0.5562,0.5345,0.5334,0.5213,0.572,0.5719,0.5717,0,0.4533,0.471,0.4799,0.4837,0.5017,0.5036,0.5087,0.5167,0.5209,0.5316,0.5367,0.5494,0.5576,0.5671,0.5787,0.5762,0.5933,0.5894,0.5781,0.5769,0.5548,0.5511,0.5438,0.5981,0.5981,0.5981,0.598,0,0.4438,0.4499,0.4761,0.4803,0.4893,0.4993,0.5039,0.5108,0.5197,0.5262,0.5371,0.5445,0.5611,0.5726,0.5803,0.5845,0.594,0.5814,0.5788,0.5542,0.5506,0.5407,0.5373,0.5982,0.5982,0.5981,0.5981,0,0.4297,0.4447,0.4595,0.4803,0.4855,0.4921,0.5045,0.5087,0.5163,0.5256,0.5302,0.5444,0.5578,0.571,0.5864,0.584,0.5739,0.5884,0.5568,0.5503,0.5234,0.5212,0.5005,0.4869,0.5749,0.5746,0.5744,0,0.4288,0.4353,0.4591,0.4696,0.4801,0.4913,0.498,0.5068,0.5118,0.525,0.5298,0.5437,0.5502,0.565,0.5657,0.5711,0.5617,0.5451,0.5359,0.5199,0.5158,0.5022,0.4915,0.5065,0.5057,0.5051,0.5045,0,0.4302,0.4356,0.4483,0.4685,0.4798,0.4893,0.4996,0.5013,0.5103,0.515,0.5193,0.5243,0.5346,0.5246,0.5312,0.5326,0.5167,0.5316,0.5242,0.4701,0.446,0.4319,0.5048,0.4988,0.4994,0.4998,0.5001,0.5004,0.4316,0.4399,0.4544,0.4677,0.4792,0.4828,0.4786,0.4875,0.4873,0.4824,0.501,0.4917,0.4903,0.4925,0.4916,0.4691,0.4764,0.4529,0.4542,0.4441,0.4219,0.4808,0.4664,0.4668,0.4671,0.4674,0.4676,0,0.4351,0.4405,0.455,0.4649,0.4632,0.4725,0.4743,0.4607,0.4498,0.4557,0.4518,0.4388,0.4267,0.4253,0.4121,0.396,0.3812,0.3857,0.3615,0.3571,0.4164,0.4043,0.3644,0.3644,0.3644,0.3644,0.3645,0.3645,0.4389,0.4452,0.4467,0.4428,0.4446,0.4298,0.4225,0.4084,0.4038,0.381,0.3669,0.3688,0.381,0.3745,0.3556,0.347,0.3268,0.3051,0.3156,0.3592,0.3656,0.3717,0.3596,0.311,0.311,0.237,0.2364,0.236]},{"header":{"parameterUnit":"m.s-1","parameterCategory":2,"la1":30.2991,"la2":30.254,"lo1":-89.0895,"lo2":-89.0444,"dy":0.0017,"dx":0.0017,"nx":28,"ny":28,"refTime":"2024-07-30T09:00:00:Z","depth":"0","parameterNumber":3,"parameterNumberName":"V-component_of_CURRENTS"},"data":[0,0,0,0,0,0,0,0,0,0,0,0,0,0,0,0,0,0,0,0,0,0,0,0,0,0,0,0,0,0,0,0,0,0,0,0,0,0,0,0,0,0,0,0,0,0,0,0,0,0,0,0,0,0,0,0,0,0,0.036,0.036,0,0.0327,0.0326,0.0326,0.0258,0.0257,0.0256,0.0255,0.0185,0.0184,0.0183,0,0,0,0,0,0,0,0,0,0,0,0,0,0.0319,0.032,0.036,0.036,0.036,0.0327,0.0326,0.0326,0.0258,0.0257,0.0256,0.0254,0.0185,0.0184,0.0183,0,0,0,0,0,0,0,0,0,0,0,0,0,0.0314,0.032,0.036,0.0324,0.0321,0.0327,0.0326,0.0325,0.0259,0.0257,0.0255,0.0254,0.0185,0.0184,0.0183,0.0209,0,0,0.0179,0.0179,0,0,0,0,0,0,0,0,0.0315,0.0315,0.0329,0.0326,0.0323,0.0297,0.0286,0.0286,0.0259,0.028,0.0255,0.0253,0.0222,0.0217,0.0212,0.0206,0.0203,0.0179,0.0178,0.0178,0.0177,0,0,0,0,0,0,0,0.0315,0.0316,0.0345,0.0329,0.0325,0.0294,0.0291,0.0285,0.0258,0.0278,0.0273,0.0274,0.0219,0.0213,0.021,0.0202,0.0179,0.0178,0.0177,0.0177,0.0255,0.0257,0,0,0,0,0,0,0.0329,0.0317,0.0346,0.0344,0.0317,0.0296,0.0293,0.0305,0.0259,0.0251,0.0275,0.0271,0.0216,0.0211,0.0207,0.0274,0.0178,0.0177,0.0176,0.0252,0.0255,0.0258,0,0,0,0,0,0,0.0328,0.0332,0.0347,0.033,0.033,0.0299,0.0312,0.0305,0.0293,0.0258,0.0248,0.027,0.0215,0.0209,0.0231,0.0269,0.0176,0.0175,0.0248,0.0253,0.0257,0.0384,0,0,0,0,0,0,0.0327,0.0332,0.0343,0.0332,0.0332,0.0372,0.0314,0.0306,0.0298,0.0291,0.0251,0.0243,0.0213,0.0234,0.023,0.0266,0.0174,0.0245,0.025,0.0255,0.0376,0.0392,0.0405,0,0,0,0,0,0.0326,0.0365,0.0344,0.0347,0.0349,0.0375,0.0373,0.0341,0.0299,0.0318,0.0297,0.0243,0.0264,0.0236,0.023,0.0267,0.0242,0.0249,0.0255,0.0369,0.0388,0.0405,0,0,0,0,0,0,0.0376,0.0362,0.0338,0.0375,0.0379,0.0364,0.0388,0.0348,0.0343,0.0341,0.0282,0.0276,0.031,0.0278,0.0248,0.0307,0.0243,0.0249,0.0332,0.0349,0.0364,0.0397,0.0173,0,0,0,0,0,0.0387,0.0392,0.039,0.0417,0.0435,0.0405,0.0407,0.0389,0.0383,0.0377,0.0344,0.0327,0.0335,0.0333,0.0334,0.0366,0.0329,0.0387,0.0401,0.0414,0.0441,0.0443,0.046,0.0279,0.0279,0.0279,0,0,0.0413,0.0404,0.0408,0.0424,0.043,0.0474,0.0404,0.0434,0.0455,0.0374,0.0401,0.0379,0.0358,0.0401,0.0412,0.0375,0.044,0.0422,0.0432,0.0453,0.0452,0.0469,0.0485,0.0283,0.0282,0.0282,0,0,0.048,0.0472,0.0506,0.052,0.0535,0.0529,0.0539,0.0535,0.0526,0.0552,0.0506,0.0519,0.0507,0.0514,0.0512,0.061,0.0522,0.0594,0.0689,0.0692,0.0707,0.0719,0.0664,0.0671,0.0596,0.0597,0.0597,0,0.0507,0.0549,0.0525,0.0574,0.0595,0.0561,0.0621,0.0624,0.0615,0.0624,0.0583,0.06,0.0571,0.0635,0.0667,0.0644,0.0606,0.062,0.071,0.0722,0.0733,0.0674,0.068,0.0604,0.0603,0.0602,0.0601,0,0.0605,0.0638,0.0678,0.0713,0.0737,0.0789,0.0796,0.0813,0.0786,0.0774,0.0817,0.0793,0.0801,0.0792,0.0758,0.0827,0.0759,0.0729,0.0662,0.0759,0.069,0.0694,0.0613,0.0611,0.0609,0.0607,0,0,0.0655,0.0727,0.0737,0.0771,0.0812,0.0845,0.0908,0.0951,0.0988,0.0977,0.1032,0.1039,0.1007,0.1006,0.0963,0.0963,0.0986,0.0882,0.0879,0.0822,0.0947,0.0881,0.0876,0.0964,0.0966,0.0968,0.0856,0,0.0734,0.0844,0.0854,0.0955,0.1017,0.1014,0.1072,0.11,0.1105,0.1153,0.1141,0.1179,0.1094,0.1105,0.1099,0.104,0.1007,0.1016,0.0869,0.0864,0.079,0.0885,0.0837,0.0734,0.0859,0.0859,0.086,0,0.0814,0.0873,0.0991,0.1066,0.1098,0.1148,0.1224,0.1272,0.133,0.1337,0.1371,0.135,0.1386,0.1288,0.1224,0.123,0.11,0.1024,0.1017,0.0922,0.0808,0.0666,0.0735,0.0552,0.0865,0.0864,0.0864,0,0.0844,0.0957,0.1048,0.1078,0.1173,0.1218,0.1266,0.1325,0.1388,0.1462,0.1522,0.1526,0.1559,0.1443,0.1297,0.1258,0.1201,0.112,0.0921,0.0911,0.0829,0.081,0.0707,0.1045,0.1045,0.1045,0.1046,0,0.0906,0.0974,0.1069,0.1121,0.1227,0.1268,0.1379,0.1423,0.1523,0.1645,0.1622,0.1727,0.1603,0.1556,0.137,0.1185,0.125,0.0964,0.0905,0.0867,0.0854,0.0655,0.0544,0.1041,0.1042,0.1043,0.1044,0,0.0923,0.0988,0.1091,0.1205,0.1246,0.1317,0.1453,0.1544,0.1621,0.1789,0.1832,0.1895,0.1852,0.1676,0.1504,0.129,0.0975,0.0994,0.0936,0.0874,0.0503,0.04,0.0224,0.0143,0.0758,0.0756,0.0755,0,0.0948,0.1005,0.1144,0.1215,0.127,0.1383,0.1481,0.1582,0.1699,0.1909,0.2016,0.2038,0.2094,0.1811,0.1456,0.1113,0.0919,0.0792,0.0716,0.0507,0.0349,0.0281,0.0221,0.0627,0.0625,0.0623,0.0621,0,0.099,0.1032,0.1125,0.1272,0.1381,0.1511,0.1661,0.1772,0.1941,0.2109,0.2332,0.24,0.2148,0.1828,0.1342,0.1093,0.0652,0.0735,0.0558,0.0286,0.0171,0.0056,0.0632,0.0603,0.0604,0.0606,0.0607,0.0608,0.1019,0.1082,0.1209,0.1341,0.1473,0.1646,0.178,0.1965,0.2195,0.2464,0.2531,0.2633,0.213,0.1497,0.1157,0.0469,0.0499,0.0227,0.0126,0.0083,0.0001,0.0519,0.0408,0.0409,0.041,0.041,0.0411,0,0.1075,0.1154,0.1278,0.1454,0.1608,0.1672,0.1919,0.2079,0.2373,0.2567,0.2757,0.2509,0.1896,0.1275,0.0357,-0.0073,-0.0197,-0.0292,-0.0395,-0.0419,0.0068,0.0061,-0.0174,-0.0174,-0.0173,-0.0173,-0.0173,-0.0173,0.1118,0.1233,0.1296,0.1542,0.1676,0.1906,0.206,0.2293,0.2467,0.2681,0.2684,0.2666,0.2145,0.0622,-0.0398,-0.0602,-0.0818,-0.0914,-0.0997,-0.0678,-0.0636,-0.0597,-0.0626,-0.1001,-0.1002,-0.1435,-0.144,-0.1443]}],[{"header":{"parameterUnit":"m.s-1","parameterCategory":2,"la1":30.2991,"la2":30.254,"lo1":-89.0895,"lo2":-89.0444,"dy":0.0017,"dx":0.0017,"nx":28,"ny":28,"refTime":"2024-07-30T09:00:00:Z","depth":"2","parameterNumber":2,"parameterNumberName":"U-component_of_CURRENTS"},"data":[0,0,0,0,0,0,0,0,0,0,0,0,0,0,0,0,0,0,0,0,0,0,0,0,0,0,0,0,0,0,0,0,0,0,0,0,0,0,0,0,0,0,0,0,0,0,0,0,0,0,0,0,0,0,0,0,0,0,0.2821,0.2821,0,0.3068,0.3074,0.3079,0.3351,0.3352,0.3353,0.3354,0.3264,0.3261,0.3258,0,0,0,0,0,0,0,0,0,0,0,0,0,0.2917,0.2915,0.2821,0.2821,0.2821,0.3067,0.3074,0.308,0.3351,0.3352,0.3353,0.3354,0.3265,0.3261,0.3257,0,0,0,0,0,0,0,0,0,0,0,0,0,0.3022,0.2914,0.2821,0.2961,0.2974,0.3066,0.3074,0.3082,0.3351,0.3352,0.3354,0.3355,0.3266,0.3262,0.3257,0.3202,0,0,0.3242,0.324,0,0,0,0,0,0,0,0,0.3016,0.3023,0.294,0.2951,0.2965,0.315,0.3073,0.3094,0.3351,0.3244,0.3354,0.3355,0.3171,0.3175,0.3272,0.3198,0.3194,0.3242,0.3239,0.3237,0.3236,0,0,0,0,0,0,0,0.3008,0.3015,0.2954,0.2939,0.2954,0.3123,0.314,0.3085,0.3217,0.3253,0.3265,0.3238,0.3181,0.3276,0.3269,0.3193,0.3242,0.3238,0.3235,0.3233,0.3267,0.327,0,0,0,0,0,0,0.2889,0.3006,0.2945,0.2957,0.2956,0.3116,0.3137,0.3117,0.3226,0.3237,0.3236,0.3249,0.3284,0.3275,0.3266,0.3353,0.3237,0.3232,0.323,0.3263,0.3267,0.3271,0,0,0,0,0,0,0.2891,0.2882,0.2934,0.2961,0.2975,0.3107,0.3087,0.3121,0.328,0.321,0.3223,0.3361,0.3284,0.3273,0.3236,0.3343,0.323,0.3226,0.3258,0.3264,0.3269,0.3426,0,0,0,0,0,0,0.2893,0.2882,0.2941,0.2952,0.2967,0.3063,0.3083,0.3123,0.3239,0.3262,0.3317,0.331,0.3285,0.3244,0.3231,0.3335,0.3222,0.3254,0.3261,0.3268,0.3416,0.3437,0.3454,0,0,0,0,0,0.2896,0.2958,0.2942,0.2939,0.3005,0.3063,0.3098,0.3217,0.3243,0.3362,0.333,0.3312,0.3284,0.3239,0.3225,0.333,0.325,0.3259,0.3267,0.3408,0.3433,0.3454,0,0,0,0,0,0,0.3021,0.2986,0.2972,0.3017,0.3052,0.3098,0.3178,0.3247,0.334,0.3292,0.33,0.329,0.3327,0.3285,0.3238,0.3369,0.3288,0.3294,0.3401,0.3423,0.3441,0.3494,0.3218,0,0,0,0,0,0.3051,0.309,0.3063,0.3092,0.3082,0.3137,0.3202,0.3226,0.3241,0.3298,0.3338,0.3334,0.3348,0.3344,0.3342,0.3356,0.3348,0.3436,0.3455,0.3471,0.3509,0.3604,0.3635,0.3299,0.3299,0.3299,0,0,0.3028,0.307,0.3049,0.3123,0.3126,0.3181,0.3192,0.321,0.3284,0.3238,0.3374,0.3383,0.3364,0.3421,0.3438,0.3396,0.3549,0.3482,0.3495,0.3525,0.3616,0.3649,0.3678,0.3305,0.3304,0.3303,0,0,0.3054,0.3079,0.312,0.3148,0.3154,0.322,0.3231,0.3279,0.3344,0.3379,0.341,0.3479,0.3481,0.3559,0.3568,0.3678,0.3647,0.3698,0.3829,0.3921,0.3949,0.3975,0.3946,0.3967,0.3707,0.3708,0.3708,0,0.3088,0.3096,0.3147,0.32,0.3197,0.3242,0.3249,0.3346,0.3408,0.3423,0.3411,0.3558,0.3562,0.3686,0.3772,0.3728,0.373,0.3737,0.3947,0.3972,0.3995,0.396,0.3982,0.3716,0.3715,0.3714,0.3714,0,0.3051,0.3125,0.3124,0.3224,0.3296,0.3261,0.3313,0.3419,0.3465,0.353,0.3633,0.3681,0.378,0.384,0.3834,0.405,0.3976,0.3958,0.3888,0.4039,0.399,0.401,0.3729,0.3726,0.3723,0.3721,0,0,0.303,0.3084,0.3129,0.315,0.3244,0.3294,0.3391,0.3496,0.3596,0.3673,0.3799,0.3925,0.3984,0.4011,0.4076,0.4206,0.4376,0.4184,0.4184,0.4151,0.4509,0.4336,0.4339,0.4406,0.4412,0.4417,0.4385,0,0.3008,0.3076,0.3149,0.3254,0.3241,0.3315,0.346,0.3559,0.3656,0.3825,0.3867,0.4024,0.4036,0.413,0.4254,0.4379,0.4449,0.4382,0.4372,0.437,0.4199,0.4366,0.4031,0.3968,0.4404,0.4407,0.4409,0,0.3009,0.3052,0.3075,0.3219,0.3226,0.3353,0.3542,0.3672,0.3868,0.3924,0.4057,0.412,0.4346,0.4327,0.455,0.4509,0.4527,0.4587,0.4585,0.4397,0.424,0.3902,0.3987,0.4442,0.4439,0.4437,0.4434,0,0.2972,0.308,0.3101,0.3101,0.3251,0.3319,0.3476,0.3685,0.3786,0.4047,0.4133,0.4327,0.4443,0.4561,0.4652,0.4631,0.4844,0.4788,0.4608,0.4588,0.4289,0.4235,0.4908,0.4908,0.4908,0.4908,0.4908,0,0.2951,0.3025,0.3083,0.3073,0.3147,0.3307,0.3484,0.3646,0.3891,0.4037,0.4218,0.4331,0.4531,0.4627,0.4691,0.4709,0.4838,0.467,0.4615,0.4322,0.4275,0.4682,0.4657,0.4907,0.4907,0.4907,0.4908,0,0.2963,0.2985,0.3001,0.3083,0.3115,0.3197,0.3431,0.3605,0.3857,0.4055,0.4141,0.4361,0.4511,0.4615,0.4793,0.4723,0.4793,0.4734,0.4322,0.4223,0.444,0.4423,0.4535,0.453,0.4525,0.4521,0.4518,0,0.2962,0.2958,0.2953,0.2973,0.3018,0.3151,0.3279,0.3537,0.3724,0.4038,0.413,0.4304,0.4369,0.4514,0.4503,0.4513,0.4659,0.4169,0.4092,0.449,0.4425,0.4415,0.4404,0.3712,0.3702,0.3695,0.3688,0,0.2944,0.2954,0.294,0.2947,0.3028,0.3089,0.3289,0.3345,0.3693,0.3845,0.4017,0.4076,0.418,0.4044,0.4063,0.403,0.416,0.4004,0.4592,0.3865,0.3715,0.365,0.3667,0.3619,0.3626,0.3631,0.3635,0.3638,0.293,0.2917,0.2937,0.2925,0.3006,0.3041,0.3051,0.3255,0.3389,0.3556,0.3718,0.3734,0.3755,0.3608,0.3506,0.3443,0.3706,0.3563,0.3587,0.362,0.3538,0.3391,0.321,0.3215,0.3218,0.3222,0.3225,0,0.2902,0.2917,0.2955,0.2906,0.2952,0.3036,0.3101,0.3074,0.3096,0.3258,0.3339,0.3069,0.2963,0.3027,0.2803,0.2768,0.2755,0.2676,0.2646,0.2716,0.2779,0.2655,0.2092,0.2089,0.2086,0.2082,0,0,0.2899,0.2924,0.2921,0.2869,0.2879,0.2849,0.2819,0.2747,0.2788,0.2698,0.2707,0.2884,0.2962,0.2515,0.2425,0.2231,0.2467,0.2146,0.3059,0.3097,0.3155,0.3293,0.3183,0,0,0,0,0]},{"header":{"parameterUnit":"m.s-1","parameterCategory":2,"la1":30.2991,"la2":30.254,"lo1":-89.0895,"lo2":-89.0444,"dy":0.0017,"dx":0.0017,"nx":28,"ny":28,"refTime":"2024-07-30T09:00:00:Z","depth":"2","parameterNumber":3,"parameterNumberName":"V-component_of_CURRENTS"},"data":[0,0,0,0,0,0,0,0,0,0,0,0,0,0,0,0,0,0,0,0,0,0,0,0,0,0,0,0,0,0,0,0,0,0,0,0,0,0,0,0,0,0,0,0,0,0,0,0,0,0,0,0,0,0,0,0,0,0,0.0045,0.0044,0,0.002,0.002,0.002,-0.0004,-0.0004,-0.0005,-0.0006,-0.0175,-0.0179,-0.0183,0,0,0,0,0,0,0,0,0,0,0,0,0,0.0063,0.0063,0.0045,0.0044,0.0043,0.002,0.002,0.002,-0.0004,-0.0004,-0.0005,-0.0006,-0.0174,-0.0178,-0.0183,0,0,0,0,0,0,0,0,0,0,0,0,0,0.0052,0.0063,0.0045,0.0026,0.0023,0.002,0.002,0.002,-0.0003,-0.0005,-0.0006,-0.0006,-0.0172,-0.0178,-0.0184,-0.0199,0,0,-0.0201,-0.0204,0,0,0,0,0,0,0,0,0.0053,0.0052,0.0029,0.0027,0.0024,0.0006,-0.0036,-0.0062,-0.0003,0.0011,-0.0006,-0.0007,-0.013,-0.0139,-0.0133,-0.0207,-0.0214,-0.0202,-0.0206,-0.0208,-0.021,0,0,0,0,0,0,0,0.0053,0.0053,0.0039,0.0028,0.0025,0.0014,0.0012,-0.004,-0.0053,0.001,0.0007,-0.0002,-0.0132,-0.0128,-0.0138,-0.0217,-0.0202,-0.0207,-0.0211,-0.0213,-0.0345,-0.0345,0,0,0,0,0,0,0.005,0.0054,0.004,0.0038,0.0031,0.0015,0.0013,0.0017,-0.0049,-0.006,-0.0001,-0.0003,-0.0117,-0.0131,-0.0145,-0.0185,-0.0208,-0.0213,-0.0217,-0.0345,-0.0345,-0.0345,0,0,0,0,0,0,0.005,0.0049,0.0041,0.0041,0.0038,0.0015,0.002,0.0017,0.0017,-0.0057,-0.007,0.0001,-0.0119,-0.0136,-0.0196,-0.0192,-0.0216,-0.0221,-0.0345,-0.0345,-0.0345,-0.0256,0,0,0,0,0,0,0.0051,0.005,0.0054,0.0041,0.0038,0.0039,0.002,0.0017,0.0011,0.0008,-0.0059,-0.0075,-0.0121,-0.0186,-0.0201,-0.02,-0.0226,-0.0344,-0.0345,-0.0345,-0.0258,-0.0252,-0.0247,0,0,0,0,0,0.0052,0.0066,0.0055,0.0052,0.0044,0.0039,0.0038,0.002,0.0012,0.0017,-0.0033,-0.0073,-0.0197,-0.0191,-0.0209,-0.0209,-0.0344,-0.0345,-0.0345,-0.0261,-0.0254,-0.0248,0,0,0,0,0,0,0.0081,0.0064,0.0051,0.006,0.0047,0.0033,0.0036,0.0025,-0.0004,-0.0011,-0.0076,-0.0096,-0.015,-0.0191,-0.0183,-0.0248,-0.0277,-0.028,-0.0207,-0.0201,-0.0195,-0.0148,-0.0231,0,0,0,0,0,0.0087,0.0091,0.007,0.0077,0.0072,0.0056,0.0052,0.0042,0.0013,0.0002,-0.0047,-0.0103,-0.016,-0.0189,-0.0246,-0.0279,-0.0288,-0.0291,-0.0285,-0.028,-0.0254,-0.0217,-0.0204,-0.0345,-0.0345,-0.0345,0,0,0.0093,0.009,0.0087,0.0083,0.0075,0.0079,0.0053,0.0053,0.0054,-0.0017,-0.0035,-0.0093,-0.0168,-0.0206,-0.0233,-0.0241,-0.0259,-0.028,-0.0275,-0.0251,-0.0216,-0.0201,-0.0189,-0.0345,-0.0345,-0.0345,0,0,0.012,0.0113,0.0124,0.0124,0.0114,0.0101,0.0101,0.0086,0.0074,0.0043,-0.0007,-0.0051,-0.0138,-0.0172,-0.0207,-0.0205,-0.0236,-0.0233,-0.016,-0.0125,-0.0112,-0.01,-0.0146,-0.0138,-0.0222,-0.0222,-0.0222,0,0.0131,0.0151,0.0126,0.0147,0.0155,0.0113,0.0134,0.0115,0.0082,0.0083,0.004,-0.0043,-0.0116,-0.0139,-0.0143,-0.019,-0.0192,-0.0177,-0.0112,-0.0101,-0.009,-0.0139,-0.0132,-0.0218,-0.0218,-0.0219,-0.0219,0,0.0181,0.0188,0.02,0.0209,0.0208,0.0225,0.0193,0.0189,0.0159,0.0142,0.011,0.0027,-0.0009,-0.0052,-0.0105,-0.0071,-0.011,-0.0112,-0.0117,-0.007,-0.0127,-0.0121,-0.0211,-0.0213,-0.0214,-0.0215,0,0,0.0233,0.0233,0.0243,0.0257,0.0252,0.0263,0.0259,0.0259,0.029,0.0222,0.0262,0.0144,0.0124,0.0085,0.0023,0.0039,0.0069,0.0007,0.0006,-0.0019,0.0106,0.0033,0.0031,0.0103,0.0105,0.0107,0.0018,0,0.0284,0.0339,0.0323,0.0362,0.0381,0.0356,0.0367,0.0359,0.0344,0.0369,0.0288,0.0291,0.0168,0.0178,0.0163,0.0121,0.0098,0.0091,0.0047,0.0044,-0.0006,0.0042,0.0057,-0.0022,0.0023,0.0024,0.0025,0,0.0352,0.0375,0.0432,0.045,0.0461,0.0475,0.0523,0.0534,0.054,0.0528,0.0512,0.0478,0.0458,0.0371,0.0297,0.0309,0.021,0.0153,0.0149,0.0068,-0.0014,-0.0054,-0.0014,0.0034,0.0033,0.0032,0.0032,0,0.0429,0.0456,0.051,0.0524,0.0534,0.0557,0.057,0.0589,0.0639,0.0668,0.0731,0.0664,0.068,0.0578,0.0416,0.0394,0.0341,0.0294,0.0106,0.0096,0.0092,0.0079,0.0243,0.0243,0.0243,0.0244,0.0244,0,0.0505,0.0541,0.0549,0.0584,0.066,0.0638,0.074,0.074,0.0795,0.0901,0.0838,0.0906,0.0754,0.0695,0.0505,0.0321,0.0399,0.0133,0.0096,0.0112,0.0102,0.0148,0.0138,0.024,0.0241,0.0242,0.0242,0,0.0569,0.0583,0.0642,0.0673,0.0697,0.0756,0.085,0.0927,0.0966,0.1116,0.1153,0.1127,0.1045,0.0837,0.067,0.0457,0.0279,0.0174,0.0155,0.0118,-0.0028,-0.0033,-0.0018,-0.0021,-0.0023,-0.0025,-0.0027,0,0.0599,0.0637,0.0727,0.0785,0.0799,0.0888,0.0964,0.1006,0.1113,0.1253,0.1343,0.1316,0.1279,0.0955,0.0611,0.0264,0.0234,0.0047,0.0001,-0.0003,-0.0041,-0.0042,-0.0044,-0.0004,-0.0005,-0.0006,-0.0007,0,0.0644,0.0689,0.076,0.0884,0.097,0.1095,0.1209,0.1316,0.1416,0.1533,0.1654,0.1639,0.1322,0.0984,0.0505,0.0269,0.0109,0.0011,0.0082,0.0057,0.0003,-0.0033,-0.0032,-0.0017,-0.0016,-0.0015,-0.0015,-0.0014,0.0694,0.0759,0.0868,0.0994,0.1116,0.1288,0.1407,0.1535,0.1713,0.1869,0.1838,0.1789,0.1414,0.0782,0.0395,-0.0001,0.0007,-0.013,-0.0123,-0.0116,-0.01,-0.0154,-0.0206,-0.0206,-0.0206,-0.0206,-0.0207,0,0.0745,0.0837,0.0957,0.1134,0.1292,0.134,0.1566,0.1672,0.1874,0.196,0.2001,0.1636,0.124,0.0821,0.0212,-0.0159,-0.0168,-0.0255,-0.0178,-0.0168,-0.0158,-0.0141,-0.0261,-0.0262,-0.0263,-0.0264,0,0,0.0787,0.0908,0.0981,0.1251,0.1385,0.1591,0.1727,0.1862,0.1956,0.2007,0.1964,0.1838,0.1342,0.0902,0.0412,0.008,0.0042,0.0012,0.0089,0.0246,0.026,-0.0061,-0.002,0,0,0,0,0]}],[{"header":{"parameterUnit":"m.s-1","parameterCategory":2,"la1":30.2991,"la2":30.254,"lo1":-89.0895,"lo2":-89.0444,"dy":0.0017,"dx":0.0017,"nx":28,"ny":28,"refTime":"2024-07-30T09:00:00:Z","depth":"4","parameterNumber":2,"parameterNumberName":"U-component_of_CURRENTS"},"data":[0,0,0,0,0,0,0,0,0,0,0,0,0,0,0,0,0,0,0,0,0,0,0,0,0,0,0,0,0,0,0,0,0,0,0,0,0,0,0,0,0,0,0,0,0,0,0,0,0,0,0,0,0,0,0,0,0,0,0.133,0.133,0,0.1415,0.1417,0.1419,0.1539,0.154,0.1541,0.1542,0.1566,0.1565,0.1565,0,0,0,0,0,0,0,0,0,0,0,0,0,0.1389,0.1388,0.133,0.133,0.133,0.1414,0.1417,0.1419,0.1539,0.154,0.1541,0.1542,0.1566,0.1565,0.1565,0,0,0,0,0,0,0,0,0,0,0,0,0,0.142,0.1388,0.133,0.139,0.1395,0.1414,0.1417,0.142,0.1539,0.154,0.1541,0.1542,0.1566,0.1565,0.1565,0.1539,0,0,0.1565,0.1565,0,0,0,0,0,0,0,0,0.1418,0.142,0.1381,0.1385,0.1391,0.1456,0.1446,0.1452,0.1538,0.1498,0.1542,0.1543,0.1513,0.1518,0.1551,0.154,0.1541,0.1565,0.1565,0.1564,0.1564,0,0,0,0,0,0,0,0.1416,0.1417,0.1377,0.138,0.1386,0.1451,0.1458,0.145,0.1507,0.1502,0.1508,0.1495,0.1518,0.1551,0.1552,0.1542,0.1565,0.1564,0.1564,0.1564,0.1599,0.16,0,0,0,0,0,0,0.137,0.1414,0.1374,0.1378,0.1393,0.1448,0.1455,0.1445,0.1509,0.1516,0.1494,0.15,0.1551,0.1552,0.1553,0.1608,0.1564,0.1564,0.1564,0.1598,0.16,0.1601,0,0,0,0,0,0,0.1371,0.1366,0.1371,0.1388,0.1391,0.1443,0.1432,0.1445,0.151,0.1501,0.151,0.1546,0.1552,0.1553,0.158,0.1606,0.1564,0.1564,0.1597,0.1599,0.16,0.1664,0,0,0,0,0,0,0.1373,0.1366,0.1385,0.1384,0.1388,0.1394,0.1429,0.1446,0.1491,0.1502,0.1547,0.155,0.1553,0.158,0.158,0.1605,0.1564,0.1596,0.1598,0.16,0.1661,0.1668,0.1674,0,0,0,0,0,0.1375,0.1369,0.1385,0.1382,0.1398,0.1393,0.1404,0.1454,0.1493,0.1521,0.156,0.155,0.1592,0.1581,0.158,0.1606,0.1595,0.1597,0.16,0.1658,0.1666,0.1674,0,0,0,0,0,0,0.1404,0.1379,0.1397,0.1387,0.1397,0.1409,0.1437,0.1468,0.1527,0.1548,0.1561,0.1566,0.1612,0.1589,0.1577,0.1622,0.1592,0.1594,0.1637,0.1645,0.1651,0.1705,0.1564,0,0,0,0,0,0.1412,0.1406,0.1394,0.1391,0.1394,0.1427,0.1446,0.1473,0.1497,0.153,0.1575,0.1601,0.1615,0.1615,0.164,0.1643,0.1668,0.1659,0.1666,0.1671,0.1715,0.1753,0.1768,0.1609,0.1609,0.1608,0,0,0.1408,0.1404,0.1396,0.1398,0.1417,0.1426,0.1447,0.1467,0.1505,0.1514,0.1614,0.164,0.1628,0.1664,0.1677,0.1646,0.1731,0.1674,0.1679,0.1721,0.1757,0.1773,0.1787,0.161,0.161,0.161,0,0,0.139,0.1407,0.1399,0.1411,0.1426,0.1446,0.1452,0.1497,0.1556,0.1611,0.1646,0.1702,0.1715,0.1742,0.1737,0.1786,0.1783,0.1771,0.1826,0.1862,0.1876,0.1889,0.1952,0.197,0.1751,0.1751,0.1751,0,0.14,0.139,0.1399,0.1404,0.142,0.1453,0.1462,0.1512,0.1578,0.1631,0.1647,0.1759,0.1761,0.1801,0.1832,0.1807,0.1829,0.1794,0.1873,0.1886,0.1898,0.1959,0.1978,0.1754,0.1754,0.1753,0.1753,0,0.1373,0.1386,0.1381,0.1404,0.1428,0.1437,0.1479,0.1549,0.162,0.1679,0.1788,0.1829,0.1889,0.1891,0.1876,0.1956,0.1948,0.1896,0.1857,0.1918,0.1979,0.1997,0.1759,0.1758,0.1757,0.1756,0,0,0.1355,0.1359,0.1372,0.1384,0.1435,0.144,0.1512,0.1583,0.1645,0.1755,0.1866,0.1925,0.1988,0.1993,0.1998,0.2038,0.2148,0.2007,0.2007,0.208,0.2253,0.2077,0.208,0.2095,0.2099,0.2101,0.2265,0,0.135,0.1346,0.1367,0.1392,0.1396,0.1458,0.1523,0.1602,0.1685,0.1812,0.1905,0.2022,0.2004,0.2064,0.2096,0.2136,0.2199,0.2112,0.2176,0.218,0.2023,0.2096,0.2112,0.2279,0.2283,0.2286,0.2288,0,0.1346,0.1344,0.1354,0.1393,0.1406,0.1443,0.1553,0.161,0.1767,0.1855,0.198,0.2078,0.2205,0.2186,0.2292,0.2229,0.2274,0.2304,0.2308,0.2143,0.2038,0.2201,0.2322,0.2319,0.2317,0.2315,0.2313,0,0.1335,0.1352,0.1362,0.1372,0.1417,0.1465,0.1519,0.1643,0.1726,0.1924,0.2043,0.2161,0.2297,0.2333,0.2408,0.2359,0.253,0.2447,0.2351,0.2341,0.2423,0.2407,0.2572,0.2572,0.2572,0.2571,0.2571,0,0.132,0.1334,0.136,0.1356,0.1406,0.146,0.1546,0.1626,0.179,0.1911,0.2081,0.222,0.2349,0.246,0.2462,0.2458,0.2564,0.2407,0.2373,0.2445,0.243,0.2437,0.2419,0.2578,0.2576,0.2575,0.2574,0,0.1293,0.1309,0.1314,0.136,0.1391,0.1431,0.156,0.1622,0.1797,0.1971,0.2078,0.2321,0.2447,0.254,0.2645,0.2542,0.2549,0.2543,0.2674,0.2638,0.2332,0.2315,0.2427,0.2422,0.2418,0.2415,0.2412,0,0.1257,0.1258,0.1304,0.1315,0.1338,0.1413,0.1474,0.1626,0.1705,0.2005,0.2096,0.2352,0.2481,0.2512,0.257,0.2574,0.2546,0.2544,0.2397,0.2363,0.232,0.2309,0.2299,0.2405,0.2404,0.2403,0.2402,0,0.1183,0.1224,0.1216,0.1244,0.1294,0.1358,0.146,0.1524,0.1723,0.1907,0.2108,0.2226,0.2384,0.2435,0.2489,0.2469,0.2508,0.25,0.2507,0.2368,0.2337,0.2296,0.2291,0.2388,0.239,0.2391,0.2392,0,0.1125,0.1131,0.1136,0.1156,0.1213,0.1283,0.1349,0.1467,0.1584,0.1901,0.1959,0.2202,0.2389,0.2388,0.2406,0.2388,0.2327,0.2223,0.2243,0.2259,0.2113,0.2043,0.2008,0,0,0,0,0,0.1067,0.1075,0.1055,0.107,0.1116,0.1184,0.1325,0.1406,0.1614,0.171,0.1831,0.197,0.2075,0.2184,0.2125,0.2269,0.2296,0.2184,0.2178,0.231,0.2326,0.216,0,0,0,0,0,0,0.1019,0.1028,0.1019,0.0982,0.1004,0.108,0.1189,0.1334,0.1389,0.161,0.1684,0.1838,0.1959,0.2102,0.2094,0.2111,0.2059,0.2299,0.2293,0.2301,0.2315,0.2328,0.2163,0,0,0,0,0]},{"header":{"parameterUnit":"m.s-1","parameterCategory":2,"la1":30.2991,"la2":30.254,"lo1":-89.0895,"lo2":-89.0444,"dy":0.0017,"dx":0.0017,"nx":28,"ny":28,"refTime":"2024-07-30T09:00:00:Z","depth":"4","parameterNumber":3,"parameterNumberName":"V-component_of_CURRENTS"},"data":[0,0,0,0,0,0,0,0,0,0,0,0,0,0,0,0,0,0,0,0,0,0,0,0,0,0,0,0,0,0,0,0,0,0,0,0,0,0,0,0,0,0,0,0,0,0,0,0,0,0,0,0,0,0,0,0,0,0,0.0106,0.0106,0,0.0075,0.0074,0.0073,0.0044,0.0044,0.0044,0.0044,-0.0034,-0.0035,-0.0037,0,0,0,0,0,0,0,0,0,0,0,0,0,0.0078,0.0079,0.0106,0.0106,0.0106,0.0075,0.0074,0.0073,0.0044,0.0044,0.0044,0.0044,-0.0033,-0.0035,-0.0038,0,0,0,0,0,0,0,0,0,0,0,0,0,0.007,0.0079,0.0106,0.009,0.0088,0.0075,0.0074,0.0073,0.0044,0.0044,0.0044,0.0044,-0.0032,-0.0035,-0.0038,-0.0053,0,0,-0.0047,-0.0048,0,0,0,0,0,0,0,0,0.0071,0.0071,0.0093,0.0091,0.0089,0.0066,0.0036,0.0029,0.0044,0.0058,0.0044,0.0044,-0.0003,-0.0008,-0.0017,-0.0057,-0.006,-0.0047,-0.0049,-0.005,-0.0051,0,0,0,0,0,0,0,0.0071,0.0072,0.0091,0.0092,0.0091,0.0062,0.0061,0.0034,0.0026,0.0057,0.0056,0.0056,-0.0004,-0.0014,-0.0019,-0.0061,-0.0047,-0.005,-0.0052,-0.0053,-0.015,-0.0151,0,0,0,0,0,0,0.0085,0.0073,0.0092,0.009,0.0083,0.0063,0.0062,0.0071,0.0027,0.0022,0.0057,0.0055,-0.0009,-0.0016,-0.0022,-0.0053,-0.005,-0.0053,-0.0055,-0.0149,-0.015,-0.0151,0,0,0,0,0,0,0.0084,0.0087,0.0093,0.0082,0.0081,0.0065,0.0075,0.0071,0.0061,0.0028,0.0021,0.0051,-0.0009,-0.0018,-0.0044,-0.0056,-0.0054,-0.0057,-0.0148,-0.015,-0.0151,-0.0108,0,0,0,0,0,0,0.0084,0.0087,0.0092,0.0084,0.0083,0.0086,0.0075,0.007,0.0063,0.0061,0.0021,0.0014,-0.001,-0.0039,-0.0047,-0.006,-0.0059,-0.0147,-0.0149,-0.015,-0.0109,-0.0108,-0.0107,0,0,0,0,0,0.0083,0.0096,0.0093,0.0095,0.0093,0.0087,0.0083,0.0068,0.0063,0.0058,0.0035,0.0015,-0.0055,-0.0042,-0.0051,-0.0065,-0.0147,-0.0148,-0.015,-0.0109,-0.0108,-0.0107,0,0,0,0,0,0,0.0093,0.0095,0.0091,0.0106,0.0096,0.0083,0.0083,0.0071,0.0048,0.0051,0.0013,0.0004,-0.0029,-0.0052,-0.0037,-0.01,-0.0108,-0.0112,-0.0074,-0.0073,-0.0073,-0.0056,-0.0062,0,0,0,0,0,0.0097,0.0103,0.01,0.0109,0.0111,0.0096,0.0091,0.0085,0.0068,0.0058,0.0027,-0.0008,-0.0044,-0.006,-0.0095,-0.012,-0.0148,-0.014,-0.0139,-0.0138,-0.0133,-0.0199,-0.0203,-0.0157,-0.0157,-0.0157,0,0,0.0105,0.0105,0.011,0.011,0.0106,0.0113,0.0092,0.0096,0.0091,0.0053,0.0032,-0.0006,-0.0051,-0.0083,-0.0101,-0.0102,-0.0162,-0.0141,-0.0139,-0.0134,-0.0201,-0.0206,-0.0209,-0.0158,-0.0158,-0.0158,0,0,0.0123,0.0126,0.0137,0.0134,0.0134,0.0127,0.013,0.0116,0.0099,0.008,0.0044,0.0003,-0.0044,-0.0084,-0.0108,-0.0126,-0.0158,-0.0143,-0.0121,-0.0185,-0.0189,-0.0193,-0.021,-0.0216,-0.0139,-0.0139,-0.0139,0,0.0129,0.0151,0.0137,0.0149,0.0156,0.0137,0.0156,0.0134,0.0108,0.0093,0.008,-0.0006,-0.0047,-0.0092,-0.0101,-0.0124,-0.0149,-0.0115,-0.0182,-0.0187,-0.0192,-0.0209,-0.0216,-0.0137,-0.0137,-0.0137,-0.0138,0,0.0161,0.0175,0.0185,0.0194,0.0193,0.0209,0.019,0.0177,0.0157,0.013,0.0079,0.0019,-0.003,-0.006,-0.0084,-0.0141,-0.0142,-0.0174,-0.0178,-0.0194,-0.0211,-0.0219,-0.0134,-0.0135,-0.0136,-0.0136,0,0,0.0185,0.0205,0.021,0.0226,0.0226,0.0235,0.0225,0.0211,0.0204,0.0153,0.0135,0.005,0.0014,-0.0017,-0.0067,-0.0125,-0.0178,-0.0157,-0.0161,-0.0161,-0.0286,-0.0273,-0.028,-0.0224,-0.0226,-0.0227,-0.0275,0,0.0216,0.0257,0.0254,0.029,0.0312,0.0295,0.029,0.0269,0.0231,0.0203,0.0129,0.0095,0.003,0.0016,-0.0061,-0.0158,-0.0201,-0.0159,-0.0283,-0.0285,-0.0262,-0.029,-0.0233,-0.0281,-0.0283,-0.0284,-0.0285,0,0.0251,0.0274,0.0326,0.0348,0.0358,0.0378,0.0376,0.0368,0.0315,0.0284,0.0223,0.0167,0.0079,0.0035,-0.0139,-0.0111,-0.0187,-0.0259,-0.0263,-0.0272,-0.0288,-0.0272,-0.03,-0.0299,-0.0298,-0.0297,-0.0296,0,0.0286,0.0322,0.0372,0.0384,0.0406,0.0427,0.0439,0.04,0.0405,0.0347,0.0346,0.0214,0.0177,0.0029,-0.013,-0.0134,-0.031,-0.0335,-0.0384,-0.0382,-0.0396,-0.0392,-0.0436,-0.0436,-0.0436,-0.0435,-0.0435,0,0.0324,0.0356,0.0403,0.0434,0.0497,0.0486,0.0532,0.0513,0.0497,0.051,0.0404,0.0381,0.0171,0.0046,-0.0108,-0.0275,-0.0298,-0.038,-0.0406,-0.0374,-0.0367,-0.04,-0.0395,-0.0437,-0.0437,-0.0437,-0.0436,0,0.035,0.0379,0.0441,0.0496,0.0523,0.0571,0.0633,0.0655,0.0626,0.0642,0.0642,0.0509,0.0336,0.013,-0.0103,-0.0221,-0.0394,-0.0434,-0.0354,-0.0374,-0.0419,-0.0412,-0.0493,-0.0493,-0.0493,-0.0493,-0.0493,0,0.0367,0.0405,0.0506,0.0561,0.0598,0.067,0.0726,0.0732,0.0754,0.0715,0.073,0.0592,0.0478,0.0169,-0.0067,-0.0347,-0.0383,-0.0449,-0.0467,-0.0414,-0.0431,-0.0423,-0.0416,-0.0493,-0.0493,-0.0493,-0.0493,0,0.0394,0.044,0.0499,0.0623,0.071,0.08,0.0873,0.0899,0.0897,0.0881,0.081,0.0648,0.0463,0.019,-0.0022,-0.0229,-0.0411,-0.0451,-0.0452,-0.047,-0.0416,-0.0431,-0.0424,-0.0494,-0.0494,-0.0494,-0.0494,0,0.0421,0.0472,0.0566,0.0671,0.0789,0.089,0.0924,0.0954,0.0979,0.0924,0.0899,0.0686,0.0557,0.0255,0.0045,-0.0156,-0.0204,-0.0257,-0.0269,-0.0272,-0.0211,-0.0111,-0.0116,0,0,0,0,0,0.0442,0.0499,0.06,0.0725,0.0844,0.0914,0.1003,0.1019,0.102,0.0991,0.0944,0.077,0.046,0.0316,0.012,0.003,-0.0249,-0.0205,-0.0317,-0.0497,-0.0496,-0.0465,0,0,0,0,0,0,0.046,0.0544,0.0597,0.0751,0.0838,0.0975,0.1035,0.1037,0.101,0.0975,0.0809,0.0732,0.0422,0.0569,0.0117,0.0055,-0.0039,-0.0354,-0.0358,-0.0497,-0.0497,-0.0496,-0.0464,0,0,0,0,0]}]]